Regional Weather Roundup
Issued by NWS Sioux Falls, SD

Home | Current Version | Previous Version | Graphics & Text | Print | Product List | Glossary Off
Versions: 1 2 3 4 5 6 7 8 9 10 11 12 13 14 15 16 17 18 19 20 21 22 23 24 25 26 27 28 29 30 31 32 33 34 35 36 37 38 39 40 41 42 43 44 45 46 47 48 49 50

504
ASUS43 KFSD 230502
RWRFSD

WEATHER ROUNDUP FOR SE SOUTH DAKOTA/SW MINNESOTA/NW IOWA
NATIONAL WEATHER SERVICE SIOUX FALLS SD
1200 AM CDT SUN JUL 23 2017

NOTE: "FAIR" INDICATES FEW OR NO CLOUDS BELOW 12,000 FEET WITH NO
SIGNIFICANT WEATHER AND OR OBSTRUCTIONS TO VISIBILITY.


SDZ038>040-050-052>070-230600-
SOUTHEAST SOUTH DAKOTA

CITY           SKY/WX    TMP DP  RH WIND       PRES   REMARKS
BROOKINGS      CLEAR     71  61  70 NW13      29.94R
CHAMBERLAIN    CLEAR     78  58  49 N5        29.98R
HURON          CLEAR     69  62  78 NW5       29.95R
MADISON        FAIR      72  70  94 W7        29.94S
MITCHELL       CLEAR     72  64  76 N12       29.93S
SIOUX FALLS    CLEAR     73  67  81 CALM      29.92S
WINNER         FAIR      74  50  42 N6        29.99R
YANKTON        CLEAR     74  68  81 CALM      29.93S
$$

MNZ071-072-080-081-089-090-097-098-230600-
SOUTHWEST MINNESOTA

CITY           SKY/WX    TMP DP  RH WIND       PRES   REMARKS
FAIRMONT       CLEAR     70  69  97 CALM      29.89S
JACKSON        PTCLDY    70  63  78 CALM      29.91S
MARSHALL       CLEAR     70  62  76 SW8       29.88S
MONTEVIDEO     CLEAR     68  61  77 N7        29.88R
PIPESTONE      CLEAR     70  63  78 N5        29.93S
REDWOOD FALLS  CLEAR     71  66  84 SW3       29.85F
WINDOM         CLEAR     70  64  83 CALM      29.90S
WORTHINGTON    CLEAR     67  63  87 W7        29.92S
$$

IAZ001>003-012>014-020>022-031-032-NEZ013-014-SDZ071-230600-
NORTHWEST IOWA

CITY           SKY/WX    TMP DP  RH WIND       PRES   REMARKS
CHEROKEE       CLEAR     68  68 100 CALM      29.91F FOG
DENISON        FOG       70  70 100 CALM      29.94R VSB<1/4
ESTHERVILLE    CLEAR     67  66  97 SW3       29.89S
ORANGE CITY    CLEAR     70  70 100 CALM      29.93S
SHELDON        CLEAR     64  64 100 CALM      29.91S
SIOUX CITY     PTCLDY    68  68 100 N5        29.90F FOG
SPENCER        CLEAR     67  66  97 SW3       29.91S
STORM LAKE     CLEAR     72  70  94 W8        29.92F
$$

ABBREVIATIONS USED IN REMARKS
   TC - TEMPERATURE IN CELSIUS
  WCI - WIND CHILL INDEX
   HX - HEAT INDEX
  VSB - VISIBILITY





USA.gov is the U.S. government's official web portal to all federal, state and local government web resources and services.